Total_Precipitation_Accumulation
0.40 0.42 0.55 0.58 0.50 0.50 0.59 0.70 0.86 0.81 0.76 0.62 0.59 0.64 0.67 0.66 0.61 0.58 0.51 0.43 0.45 0.47 0.53 0.56 0.61 0.65 0.69 0.66 0.72 0.81 0.96 1.10 1.17 1.25 1.31 1.22 1.10 1.04 1.10 1.08 1.07 1.19 1.34 1.47
0.31 0.29 0.39 0.46 0.44 0.45 0.46 0.50 0.62 0.66 0.65 0.51 0.48 0.48 0.50 0.48 0.42 0.43 0.44 0.38 0.36 0.39 0.43 0.45 0.47 0.51 0.52 0.60 0.77 0.81 0.88 0.98 1.17 1.27 1.21 1.14 1.03 0.99 1.00 0.98 0.97 1.05 1.18 1.36
0.48 0.36 0.42 0.64 0.59 0.59 0.62 0.56 0.57 0.52 0.42 0.27 0.27 0.29 0.34 0.35 0.35 0.39 0.38 0.33 0.31 0.32 0.35 0.36 0.41 0.49 0.53 0.61 0.73 0.77 0.81 0.96 1.16 1.19 1.11 1.03 1.06 1.06 1.00 0.97 0.99 1.05 1.10 1.10
0.58 0.57 0.89 0.96 0.67 0.65 0.63 0.43 0.30 0.23 0.20 0.18 0.23 0.22 0.22 0.24 0.26 0.30 0.29 0.26 0.26 0.27 0.29 0.31 0.34 0.42 0.48 0.54 0.59 0.64 0.71 0.84 1.01 1.06 1.04 1.06 1.05 1.02 0.93 0.87 0.87 0.92 0.94 0.99
0.71 0.71 0.84 0.75 0.49 0.43 0.46 0.34 0.17 0.15 0.16 0.16 0.18 0.17 0.14 0.15 0.16 0.18 0.19 0.16 0.17 0.19 0.23 0.26 0.25 0.29 0.36 0.40 0.44 0.49 0.59 0.71 0.81 0.83 0.90 0.93 0.90 0.92 0.87 0.78 0.78 0.80 0.84 0.91
0.85 0.96 0.91 0.51 0.31 0.28 0.38 0.50 0.21 0.15 0.15 0.13 0.13 0.18 0.14 0.10 0.10 0.11 0.11 0.10 0.10 0.12 0.17 0.22 0.21 0.22 0.27 0.34 0.38 0.42 0.52 0.63 0.71 0.73 0.74 0.77 0.83 0.86 0.86 0.81 0.77 0.77 0.80 0.82
0.82 1.02 0.82 0.41 0.29 0.31 0.53 0.61 0.29 0.20 0.17 0.13 0.12 0.13 0.11 0.10 0.09 0.09 0.09 0.09 0.09 0.10 0.16 0.20 0.21 0.20 0.21 0.26 0.30 0.36 0.42 0.53 0.60 0.63 0.69 0.78 0.86 0.88 0.91 0.88 0.83 0.82 0.85 0.87
0.76 0.97 0.88 0.43 0.38 0.48 0.52 0.39 0.30 0.24 0.20 0.15 0.11 0.09 0.07 0.08 0.08 0.09 0.09 0.09 0.09 0.11 0.17 0.20 0.20 0.20 0.19 0.22 0.26 0.30 0.32 0.39 0.53 0.61 0.68 0.75 0.86 0.90 0.89 0.90 0.91 0.92 0.91 0.92
0.82 0.93 0.65 0.44 0.47 0.46 0.40 0.36 0.26 0.19 0.17 0.15 0.12 0.10 0.08 0.07 0.09 0.09 0.10 0.09 0.10 0.13 0.17 0.16 0.18 0.20 0.20 0.23 0.24 0.23 0.25 0.31 0.39 0.46 0.50 0.59 0.70 0.81 0.86 0.85 0.86 0.87 0.93 1.01
0.66 0.58 0.38 0.36 0.37 0.33 0.31 0.27 0.21 0.17 0.14 0.13 0.11 0.10 0.09 0.09 0.10 0.10 0.10 0.10 0.12 0.15 0.17 0.17 0.17 0.19 0.20 0.21 0.22 0.23 0.26 0.28 0.31 0.35 0.37 0.44 0.59 0.66 0.70 0.74 0.79 0.86 0.94 1.05
0.64 0.57 0.41 0.33 0.32 0.30 0.27 0.20 0.17 0.19 0.19 0.16 0.14 0.11 0.09 0.08 0.09 0.09 0.10 0.10 0.13 0.14 0.17 0.19 0.17 0.17 0.19 0.20 0.21 0.23 0.26 0.27 0.28 0.30 0.34 0.38 0.47 0.59 0.67 0.72 0.79 0.84 0.92 1.06
0.68 0.59 0.54 0.38 0.30 0.25 0.22 0.19 0.16 0.17 0.18 0.20 0.22 0.19 0.13 0.09 0.08 0.09 0.10 0.11 0.14 0.15 0.16 0.19 0.19 0.17 0.20 0.21 0.22 0.28 0.32 0.30 0.31 0.33 0.36 0.39 0.44 0.54 0.61 0.63 0.65 0.70 0.75 0.81
0.45 0.41 0.38 0.29 0.24 0.20 0.19 0.16 0.13 0.13 0.13 0.14 0.17 0.22 0.21 0.17 0.14 0.12 0.12 0.14 0.16 0.18 0.18 0.18 0.19 0.19 0.20 0.23 0.28 0.38 0.42 0.40 0.38 0.38 0.42 0.47 0.48 0.51 0.57 0.59 0.61 0.63 0.65 0.71
0.30 0.29 0.31 0.26 0.21 0.18 0.17 0.15 0.12 0.13 0.15 0.15 0.16 0.18 0.20 0.22 0.20 0.17 0.17 0.18 0.19 0.19 0.20 0.18 0.18 0.21 0.23 0.25 0.28 0.31 0.34 0.37 0.40 0.43 0.43 0.47 0.54 0.61 0.67 0.72 0.66 0.60 0.60 0.67
0.27 0.26 0.27 0.24 0.19 0.17 0.19 0.21 0.20 0.19 0.18 0.16 0.15 0.17 0.19 0.18 0.18 0.17 0.18 0.17 0.17 0.18 0.18 0.18 0.17 0.19 0.23 0.24 0.24 0.27 0.30 0.36 0.45 0.49 0.48 0.48 0.59 0.70 0.76 0.78 0.74 0.65 0.56 0.56
0.24 0.22 0.22 0.22 0.20 0.15 0.17 0.20 0.22 0.22 0.19 0.17 0.16 0.16 0.18 0.19 0.20 0.21 0.21 0.20 0.19 0.20 0.19 0.18 0.18 0.19 0.21 0.23 0.26 0.29 0.33 0.40 0.49 0.55 0.52 0.53 0.58 0.61 0.63 0.68 0.68 0.63 0.61 0.63
0.25 0.28 0.28 0.27 0.23 0.18 0.16 0.18 0.21 0.22 0.20 0.19 0.18 0.20 0.21 0.23 0.26 0.24 0.24 0.25 0.26 0.26 0.26 0.26 0.25 0.24 0.26 0.28 0.30 0.36 0.42 0.42 0.44 0.51 0.51 0.50 0.51 0.51 0.55 0.59 0.57 0.57 0.58 0.63
0.23 0.27 0.32 0.35 0.34 0.27 0.21 0.20 0.23 0.27 0.26 0.22 0.19 0.23 0.25 0.27 0.29 0.27 0.27 0.26 0.26 0.26 0.28 0.31 0.32 0.30 0.31 0.34 0.38 0.40 0.44 0.45 0.43 0.50 0.53 0.48 0.47 0.49 0.54 0.56 0.56 0.55 0.54 0.56
0.24 0.26 0.28 0.33 0.37 0.36 0.30 0.27 0.28 0.29 0.26 0.24 0.23 0.27 0.30 0.28 0.27 0.26 0.26 0.29 0.33 0.33 0.32 0.33 0.36 0.33 0.33 0.38 0.44 0.45 0.47 0.46 0.46 0.49 0.50 0.49 0.47 0.49 0.55 0.59 0.58 0.55 0.55 0.56
0.26 0.27 0.29 0.31 0.32 0.34 0.34 0.32 0.34 0.35 0.31 0.29 0.29 0.31 0.33 0.31 0.29 0.30 0.31 0.33 0.36 0.36 0.36 0.39 0.37 0.33 0.34 0.38 0.45 0.46 0.49 0.50 0.53 0.55 0.54 0.57 0.60 0.59 0.58 0.58 0.61 0.60 0.57 0.57
0.24 0.27 0.30 0.31 0.29 0.30 0.34 0.34 0.34 0.38 0.37 0.34 0.32 0.34 0.35 0.33 0.33 0.36 0.39 0.40 0.37 0.36 0.40 0.44 0.42 0.40 0.40 0.45 0.47 0.45 0.49 0.50 0.53 0.57 0.58 0.59 0.64 0.64 0.61 0.61 0.63 0.67 0.69 0.66
0.22 0.25 0.27 0.27 0.29 0.33 0.36 0.36 0.34 0.32 0.33 0.35 0.33 0.32 0.34 0.36 0.37 0.37 0.37 0.39 0.39 0.41 0.44 0.45 0.47 0.52 0.55 0.53 0.46 0.45 0.49 0.51 0.56 0.63 0.65 0.64 0.66 0.68 0.66 0.64 0.66 0.69 0.73 0.76
0.19 0.22 0.27 0.29 0.31 0.32 0.35 0.37 0.37 0.33 0.31 0.35 0.40 0.42 0.44 0.45 0.43 0.43 0.44 0.42 0.45 0.47 0.40 0.43 0.55 0.65 0.69 0.57 0.51 0.49 0.48 0.52 0.59 0.67 0.71 0.73 0.74 0.75 0.75 0.74 0.74 0.76 0.79 0.87
0.20 0.22 0.27 0.30 0.29 0.30 0.36 0.40 0.40 0.37 0.34 0.38 0.44 0.48 0.51 0.51 0.47 0.45 0.48 0.52 0.56 0.55 0.43 0.44 0.54 0.63 0.66 0.58 0.58 0.58 0.56 0.58 0.63 0.66 0.70 0.75 0.80 0.84 0.85 0.86 0.88 0.86 0.85 0.89
0.22 0.24 0.27 0.30 0.32 0.35 0.37 0.37 0.38 0.38 0.39 0.42 0.43 0.45 0.47 0.50 0.51 0.50 0.48 0.50 0.57 0.59 0.52 0.52 0.59 0.64 0.59 0.57 0.61 0.64 0.64 0.65 0.70 0.74 0.77 0.83 0.87 0.89 0.91 0.92 0.95 0.98 1.00 1.01
0.24 0.26 0.28 0.31 0.33 0.36 0.36 0.36 0.37 0.37 0.38 0.41 0.43 0.43 0.44 0.45 0.46 0.47 0.46 0.48 0.52 0.57 0.56 0.56 0.57 0.59 0.56 0.55 0.57 0.59 0.60 0.63 0.68 0.73 0.75 0.81 0.87 0.92 0.93 0.94 0.94 0.99 1.04 1.08
0.28 0.28 0.28 0.28 0.29 0.30 0.33 0.35 0.38 0.41 0.41 0.41 0.44 0.43 0.42 0.45 0.46 0.45 0.45 0.47 0.51 0.53 0.56 0.60 0.61 0.60 0.60 0.63 0.64 0.61 0.60 0.61 0.62 0.65 0.71 0.76 0.84 0.93 0.97 1.00 1.03 1.07 1.11 1.16